* Astronomy

Members Login
Username 
 
Password 
    Remember Me  
Post Info TOPIC: Asteroid 2012 BX13


L

Posts: 131433
Date:
Asteroid 2012 BX13
Permalink  
 


Orbital elements:
2012 BX13                                                Earth MOID = 0.2600 AU
Epoch 2012 Mar. 14.0 TT = JDT 2456000.5                 MPC
M 347.38320              (2000.0)            P               Q
n   0.59043842     Peri.  129.42449     -0.20386075     +0.75477888
a   1.4071908      Node   116.97324     -0.96393144     -0.26606092
e   0.6233344      Incl.   44.39505     +0.17110517     -0.59960022
P   1.67           H   20.0           G   0.15           U   8

MPEC 2012 - B35



__________________
Page 1 of 1  sorted by
 
Quick Reply

Please log in to post quick replies.



Create your own FREE Forum
Report Abuse
Powered by ActiveBoard